Date String (YYYY-MM-DD hh:mm:ss) UTC,Instrument flags,absolute air pressure of the measurement (hPa),sample flow rate (lpm),inlet stack bypass flow (lpm),air temperature of the measurement (°C),ambient temperature measured by the external sensor (°C),aerosol sample conditioner tube jacket temperature (°C),OPC LED temperature (°C),internal box temperature (°C),relative humidity of the measurement (%),span deviation,mass concentration of particles derived from Lorenz-Mie calculation of OPC scattering (μg/m³),mass concentration of particles derived from Lorenz-Mie calculation of OPC scattering (μg/m³),mass concentration of particles derived from Lorenz-Mie calculation of OPC scattering (μg/m³)
DateTimeUTC,F1_M11,P_M11,Q1_M11,Q2_M11,T1_M11,T2_M11,T3_M11,T4_M11,T5_M11,U1_M11,ZSPAN_M11,X2_M11,X0_M11,X1_M11
2023-11-09 18:00:00,SystemResetWarning,0835.5,4.99,000.00,023.8,023.2,000.0,032.0,025.4,12.8,0000.0,0003.60,0005.94,0003.36
2023-11-09 18:01:00,SystemResetWarning,0835.5,5.00,000.00,023.8,023.2,000.0,032.0,025.4,12.8,0000.0,0003.62,0006.46,0003.38
2023-11-09 18:02:00,SystemResetWarning,0835.5,5.01,000.00,023.9,023.2,000.0,032.0,025.4,13.1,0000.0,0003.63,0006.41,0003.40
2023-11-09 18:03:00,SystemResetWarning,0835.5,5.00,000.00,023.9,023.3,000.0,032.0,025.5,12.9,0000.0,0003.64,0006.32,0003.41
2023-11-09 18:04:00,SystemResetWarning,0835.5,5.01,000.00,023.9,023.3,000.0,032.0,025.5,12.6,0000.0,0003.66,0006.35,0003.44
2023-11-09 18:05:00,SystemResetWarning,0835.5,5.00,000.00,023.9,023.3,000.0,032.1,025.5,12.1,0000.0,0003.70,0006.46,0003.47
2023-11-09 18:06:00,SystemResetWarning,0835.4,5.00,000.00,023.9,023.3,000.0,032.1,025.5,11.6,0000.0,0003.73,0006.52,0003.48
2023-11-09 18:07:00,SystemResetWarning,0835.4,4.99,000.00,024.0,023.3,000.0,032.1,025.5,11.8,0000.0,0003.78,0006.85,0003.50
2023-11-09 18:08:00,SystemResetWarning,0835.4,5.00,000.00,024.0,023.4,000.0,032.1,025.5,12.0,0000.0,0003.80,0006.92,0003.51
2023-11-09 18:09:00,SystemResetWarning,0835.5,4.99,000.00,024.0,023.4,000.0,032.1,025.5,12.1,0000.0,0003.79,0006.84,0003.51
2023-11-09 18:10:00,SystemResetWarning,0835.5,5.00,000.00,024.0,023.4,000.0,032.1,025.5,12.1,0000.0,0003.73,0006.59,0003.48
2023-11-09 18:11:00,SystemResetWarning,0835.4,5.00,000.00,024.0,023.4,000.0,032.2,025.6,11.9,0000.0,0003.68,0005.91,0003.44
2023-11-09 18:12:00,SystemResetWarning,0835.4,5.01,000.00,024.0,023.4,000.0,032.2,025.6,11.9,0000.0,0003.65,0005.15,0003.40
2023-11-09 18:13:00,SystemResetWarning,0835.4,5.00,000.00,024.1,023.4,000.0,032.2,025.6,12.0,0000.0,0003.64,0005.22,0003.36
2023-11-09 18:14:00,SystemResetWarning,0835.3,5.00,000.00,024.1,023.5,000.0,032.2,025.6,11.7,0000.0,0003.63,0005.31,0003.32
2023-11-09 18:15:00,SystemResetWarning,0835.3,5.00,000.00,024.1,023.5,000.0,032.2,025.6,11.7,0000.0,0003.61,0005.31,0003.30
2023-11-09 18:16:00,SystemResetWarning,0835.2,5.00,000.00,024.1,023.5,000.0,032.3,025.7,11.6,0000.0,0003.60,0005.29,0003.28
2023-11-09 18:17:00,SystemResetWarning,0835.2,4.99,000.00,024.1,023.5,000.0,032.3,025.7,12.0,0000.0,0003.57,0005.17,0003.26
2023-11-09 18:18:00,SystemResetWarning,0835.2,5.00,000.00,024.1,023.5,000.0,032.3,025.7,11.7,0000.0,0003.54,0005.01,0003.26
2023-11-09 18:19:00,SystemResetWarning,0835.2,5.00,000.00,024.2,023.6,000.0,032.3,025.7,11.8,0000.0,0003.53,0004.96,0003.25
2023-11-09 18:20:00,SystemResetWarning,0835.2,4.99,000.00,024.2,023.6,000.0,032.3,025.8,12.1,0000.0,0003.53,0004.93,0003.26
2023-11-09 18:21:00,SystemResetWarning,0835.3,5.01,000.00,024.2,023.6,000.0,032.3,025.8,12.1,0000.0,0003.53,0005.02,0003.26
2023-11-09 18:22:00,SystemResetWarning,0835.3,5.01,000.00,024.2,023.6,000.0,032.4,025.8,12.0,0000.0,0003.53,0005.75,0003.25
2023-11-09 18:23:00,SystemResetWarning,0835.3,4.99,000.00,024.2,023.6,000.0,032.4,025.9,12.0,0000.0,0003.51,0006.81,0003.25
2023-11-09 18:24:00,SystemResetWarning,0835.3,5.00,000.00,024.3,023.6,000.0,032.4,025.9,12.0,0000.0,0003.53,0007.99,0003.26
2023-11-09 18:25:00,SystemResetWarning,0835.3,4.99,000.00,024.3,023.6,000.0,032.4,025.9,12.3,0000.0,0003.54,0007.98,0003.27
2023-11-09 18:26:00,SystemResetWarning,0835.3,5.01,000.00,024.3,023.7,000.0,032.4,025.9,12.4,0000.0,0003.52,0007.93,0003.28
2023-11-09 18:27:00,SystemResetWarning,0835.3,5.01,000.00,024.3,023.7,000.0,032.4,025.9,12.0,0000.0,0003.53,0008.37,0003.30
2023-11-09 18:28:00,SystemResetWarning,0835.2,5.01,000.00,024.3,023.7,000.0,032.5,025.9,12.2,0000.0,0003.54,0008.47,0003.31
2023-11-09 18:29:00,SystemResetWarning,0835.2,4.99,000.00,024.4,023.7,000.0,032.5,025.9,12.3,0000.0,0003.57,0008.47,0003.34
2023-11-09 18:30:00,SystemResetWarning,0835.2,4.99,000.00,024.4,023.7,000.0,032.5,026.0,12.6,0000.0,0003.61,0008.50,0003.36
2023-11-09 18:31:00,SystemResetWarning,0835.2,5.01,000.00,024.4,023.7,000.0,032.5,026.0,12.6,0000.0,0003.65,0008.57,0003.38
2023-11-09 18:32:00,SystemResetWarning,0835.2,5.01,000.00,024.4,023.8,000.0,032.5,026.0,12.6,0000.0,0003.68,0008.62,0003.41
2023-11-09 18:33:00,SystemResetWarning,0835.2,5.00,000.00,024.4,023.8,000.0,032.6,026.0,12.5,0000.0,0003.73,0008.25,0003.43
2023-11-09 18:34:00,SystemResetWarning,0835.2,4.99,000.00,024.4,023.8,000.0,032.6,026.0,12.3,0000.0,0003.76,0007.52,0003.47
2023-11-09 18:35:00,SystemResetWarning,0835.3,4.99,000.00,024.5,023.8,000.0,032.6,026.0,12.1,0000.0,0003.76,0006.63,0003.49
2023-11-09 18:36:00,SystemResetWarning,0835.3,5.00,000.00,024.5,023.8,000.0,032.6,026.1,11.9,0000.0,0003.80,0006.73,0003.53
2023-11-09 18:37:00,SystemResetWarning,0835.3,4.99,000.00,024.5,023.9,000.0,032.6,026.1,11.9,0000.0,0003.83,0006.85,0003.55
2023-11-09 18:38:00,SystemResetWarning,0835.2,5.00,000.00,024.5,023.9,000.0,032.7,026.1,11.6,0000.0,0003.87,0006.33,0003.58
2023-11-09 18:39:00,SystemResetWarning,0835.2,5.01,000.00,024.5,023.9,000.0,032.7,026.1,11.7,0000.0,0003.91,0006.07,0003.62
2023-11-09 18:40:00,SystemResetWarning,0835.2,5.00,000.00,024.6,023.9,000.0,032.7,026.1,11.8,0000.0,0003.96,0006.19,0003.66
2023-11-09 18:41:00,SystemResetWarning,0835.2,4.99,000.00,024.6,023.9,000.0,032.7,026.1,11.8,0000.0,0003.96,0006.15,0003.68
2023-11-09 18:42:00,SystemResetWarning,0835.1,4.99,000.00,024.6,023.9,000.0,032.7,026.1,12.0,0000.0,0003.95,0006.09,0003.69
2023-11-09 18:43:00,SystemResetWarning,0835.2,5.00,000.00,024.6,024.0,000.0,032.7,026.2,11.8,0000.0,0003.97,0006.12,0003.71
2023-11-09 18:44:00,SystemResetWarning,0835.1,5.01,000.00,024.6,024.0,000.0,032.8,026.2,11.7,0000.0,0003.97,0006.04,0003.74
2023-11-09 18:45:00,SystemResetWarning,0835.1,5.01,000.00,024.6,024.0,000.0,032.8,026.2,11.7,0000.0,0003.99,0006.32,0003.76
2023-11-09 18:46:00,SystemResetWarning,0835.1,5.00,000.00,024.6,024.0,000.0,032.8,026.3,11.7,0000.0,0004.04,0007.11,0003.79
2023-11-09 18:47:00,SystemResetWarning,0835.0,4.99,000.00,024.7,024.0,000.0,032.8,026.3,11.6,0000.0,0004.05,0007.41,0003.81
2023-11-09 18:48:00,SystemResetWarning,0835.0,5.00,000.00,024.7,024.0,000.0,032.8,026.3,11.6,0000.0,0004.09,0007.43,0003.85
2023-11-09 18:49:00,SystemResetWarning,0835.0,5.00,000.00,024.7,024.1,000.0,032.8,026.3,11.7,0000.0,0004.11,0007.43,0003.87
2023-11-09 18:50:00,SystemResetWarning,0835.0,4.99,000.00,024.7,024.1,000.0,032.9,026.3,11.9,0000.0,0004.10,0007.38,0003.88
2023-11-09 18:51:00,SystemResetWarning,0834.9,5.00,000.00,024.7,024.1,000.0,032.9,026.3,12.1,0000.0,0004.09,0007.35,0003.88
2023-11-09 18:52:00,SystemResetWarning,0834.8,5.01,000.00,024.8,024.1,000.0,032.9,026.4,12.2,0000.0,0004.12,0007.41,0003.90
2023-11-09 18:53:00,SystemResetWarning,0834.9,5.00,000.00,024.8,024.2,000.0,032.9,026.4,12.4,0000.0,0004.15,0007.41,0003.93
2023-11-09 18:54:00,SystemResetWarning,0835.1,5.00,000.00,024.8,024.2,000.0,032.9,026.4,11.9,0000.0,0004.17,0007.69,0003.93
2023-11-09 18:55:00,SystemResetWarning,0835.4,4.99,000.00,024.8,024.2,000.0,033.0,026.4,11.7,0000.0,0004.18,0008.27,0003.93
2023-11-09 18:56:00,SystemResetWarning,0835.3,5.00,000.00,024.8,024.2,000.0,033.0,026.4,12.0,0000.0,0004.18,0008.08,0003.92
2023-11-09 18:57:00,SystemResetWarning,0835.2,5.00,000.00,024.9,024.2,000.0,033.0,026.4,12.0,0000.0,0004.16,0007.47,0003.90
2023-11-09 18:58:00,SystemResetWarning,0835.4,5.00,000.00,024.9,024.2,000.0,033.0,026.4,11.5,0000.0,0004.15,0007.28,0003.89
2023-11-09 18:59:00,SystemResetWarning,0835.2,5.02,000.00,024.9,024.2,000.0,033.0,026.5,11.5,0000.0,0004.13,0007.28,0003.85
